Weather History for MMTG - October, 2012

Change the Weather History Date:

Saturday, October 20, 2012

  Actual Average Record
Temperature  
Mean Temperature 78 °F -  
Max Temperature 89 °F 76 °F 93 °F (2006)
Min Temperature 68 °F 63 °F 60 °F (1996)
Cooling Degree Days 14    
Growing Degree Days 28 (Base 50)    
Moisture  
Dew Point 70 °F    
Average Humidity 75    
Maximum Humidity 94    
Minimum Humidity 43    
Precipitation  
Precipitation 0.00 in - - ()
Sea Level Pressure  
Sea Level Pressure 29.83 in    
Wind  
Wind Speed 7 mph ()    
Max Wind Speed 80 mph    
Max Gust Speed -    
Visibility 7.9 miles    
Events      
Averages and records for this station are not official NWS values.
T = Trace of Precipitation, MM = Missing Value Source: Averaged Metar Reports

Daily Weather History Graph

Daily Weather History Graph

Search for Another Location

Airport or City:

Trip Planner

Search our weather history database for the weather conditions in past years. The results will help you decide how hot, cold, wet, or windy it might be!

Date:

Astronomy

Oct. 20, 2012 Rise Set
Actual Time 7:05 AM CDT 6:47 PM CDT
Civil Twilight 6:44 AM CDT 7:09 PM CDT
Nautical Twilight 6:18 AM CDT 7:34 PM CDT
Astronomical Twilight 5:53 AM CDT 7:59 PM CDT
Moon 12:17 PM CDT (10/20) 11:55 PM CDT (10/20)
Length of Visible Light 12h 25m
Length of Day
11h 41m
Waxing Crescent, 34% of the Moon is Illuminated
Oct 20
Waxing Crescent
Oct 21
First Quarter
Oct 29
Full
Nov 6
Last Quarter
Nov 13
New

Hourly Weather History & Observations

Time (CDT) Temp. Heat Index Dew Point Humidity Pressure Visibility Wind Dir Wind Speed Gust Speed Precip Events Conditions
12:35 AM 75 °F - 73 °F 92% 29.80 in 9 mi Calm Calm - -  
12:53 AM 71.6 °F - 68.0 °F 88% 29.81 in 7.0 mi West 4.6 mph - N/A   Scattered Clouds
2:45 AM 71.6 °F - 68.0 °F 88% 29.89 in 7.0 mi Calm Calm - N/A   Scattered Clouds
3:38 AM - - 72 °F % 29.78 in 9 mi NNE 80.5 mph - -  
5:40 AM 69.8 °F - 68.0 °F 94% 29.89 in 5.0 mi WSW 5.8 mph - N/A   Scattered Clouds
6:35 AM 71 °F - 70 °F 94% 29.83 in 9 mi Calm Calm - -   Scattered Clouds
6:40 AM 68.0 °F - 66.2 °F 94% 29.82 in 5.0 mi Calm Calm - N/A   Scattered Clouds
7:40 AM 68.0 °F - 66.2 °F 94% 29.94 in 6.0 mi West 3.5 mph - N/A   Scattered Clouds
8:41 AM 73.4 °F - 68.0 °F 83% 29.95 in 6.0 mi North 3.5 mph - N/A   Mostly Cloudy
9:56 AM 78.8 °F - 69.8 °F 74% 29.86 in 8.0 mi ENE 3.5 mph - N/A   Scattered Clouds
10:00 AM 76 °F - 74 °F 90% 29.88 in 9 mi SW 2.2 mph - -  
10:40 AM 80.6 °F 83.2 °F 68.0 °F 65% 29.94 in 7.0 mi North 4.6 mph - N/A   Mostly Cloudy
11:44 AM 84.2 °F 87.3 °F 68.0 °F 58% 29.92 in 7.0 mi Calm Calm - N/A   Mostly Cloudy
12:45 PM 84 °F - 80 °F 85% 29.81 in 9 mi SW 4.5 mph - -   Partly Cloudy
12:49 PM 86.0 °F 90.4 °F 69.8 °F 58% 29.79 in 7.0 mi Calm Calm - N/A   Scattered Clouds
1:41 PM 87.8 °F 91.4 °F 68.0 °F 52% 29.86 in 7.0 mi ENE 4.6 mph - N/A   Scattered Clouds
2:47 PM 89.6 °F 91.1 °F 64.4 °F 43% 29.81 in 8.0 mi NE 4.6 mph - N/A   Scattered Clouds
3:42 PM 89.6 °F 93.4 °F 68.0 °F 49% 29.68 in 8.0 mi WNW 4.6 mph - N/A   Scattered Clouds
3:45 PM 85 °F - 80 °F 79% 29.70 in 9 mi SW 6.7 mph - -   Partly Cloudy
4:45 PM 86.0 °F 90.4 °F 69.8 °F 58% 29.78 in 8.0 mi NW 13.8 mph - N/A   Mostly Cloudy
5:46 PM 82.4 °F 85.4 °F 68.0 °F 62% 29.80 in 8.0 mi WNW 11.5 mph - N/A   Mostly Cloudy
6:40 PM 80 °F - 77 °F 86% 29.73 in 9 mi SW 4.5 mph - -   Scattered Clouds
6:42 PM 80.6 °F 83.2 °F 68.0 °F 65% 29.73 in 8.0 mi NW 10.4 mph - N/A   Mostly Cloudy
7:44 PM 80.6 °F 83.2 °F 68.0 °F 65% 29.84 in 8.0 mi NW 8.1 mph - N/A   Mostly Cloudy
8:44 PM 78.8 °F - 68.0 °F 69% 29.87 in 10.0 mi NW 5.8 mph - N/A   Scattered Clouds
9:30 PM 78 °F - 73 °F 82% 29.80 in 9 mi SE 2.2 mph - -   Scattered Clouds
9:45 PM 75.2 °F - 68.0 °F 78% 29.81 in 10.0 mi Calm Calm - N/A   Mostly Cloudy
10:44 PM 75.2 °F - 68.0 °F 78% 29.91 in 10.0 mi Calm Calm - N/A   Scattered Clouds